FW6908 Weather Reports


time (UTC)temp
C
wind
direction
speed
KPH
gust
KPH
rain 1hr
cm
rain 24hr
cm
rain mn
cm
humidity
%
barometer
mb
20260504220508 10 36 4.8 14.5 0.00 0.00 0.00 71 1020.1
20260504220023 10 67 6.4 14.5 0.00 0.00 0.00 71 1020.3
20260504215510 10 29 6.4 11.3 0.00 0.00 0.00 71 1020.2
20260504215010 9 44 8.0 11.3 0.00 0.00 0.00 70 1020.3
20260504214506 10 15 4.8 8.0 0.00 0.00 0.00 69 1020.4
20260504214005 10 30 3.2 8.0 0.00 0.00 0.00 68 1020.1
20260504213505 10 74 3.2 9.7 0.00 0.00 0.00 69 1020.2
20260504213008 10 37 4.8 9.7 0.00 0.00 0.00 69 1020.2
20260504212503 10 39 6.4 9.7 0.00 0.00 0.00 67 1020.1
20260504212001 10 28 4.8 8.0 0.00 0.00 0.00 66 1020.1
20260504211501 10 38 4.8 8.0 0.00 0.00 0.00 65 1020.0
20260504211059 10 43 4.8 8.0 0.00 0.00 0.00 64 1020.0
20260504210600 10 35 4.8 9.7 0.00 0.00 0.00 64 1020.1
20260504210104 10 43 4.8 12.9 0.00 0.00 0.00 64 1020.1
20260504205559 10 55 8.0 12.9 0.00 0.00 0.00 64 1020.2
20260504205059 10 36 6.4 11.3 0.00 0.00 0.00 64 1020.1
20260504204604 10 42 6.4 12.9 0.00 0.00 0.00 64 1020.1
20260504204059 11 35 4.8 9.7 0.00 0.00 0.00 65 1020.1
20260504203557 11 27 4.8 8.0 0.00 0.00 0.00 64 1020.2
20260504203058 11 59 3.2 8.0 0.00 0.00 0.00 66 1020.3
20260504202557 11 39 3.2 6.4 0.00 0.00 0.00 67 1020.2
20260504202057 12 24 4.8 8.0 0.00 0.00 0.00 65 1020.3
20260504201557 12 20 3.2 8.0 0.00 0.00 0.00 65 1020.4
20260504201056 13 355 0.0 3.2 0.00 0.00 0.00 67 1020.4
20260504200556 13 351 1.6 6.4 0.00 0.00 0.00 65 1020.4
20260504200056 13 355 3.2 6.4 0.00 0.00 0.00 64 1020.5
20260504195555 13 285 0.0 4.8 0.00 0.00 0.00 65 1020.5
20260504195055 14 267 0.0 4.8 0.00 0.00 0.00 64 1020.4
20260504194559 14 268 1.6 4.8 0.00 0.00 0.00 64 1020.4
20260504194055 14 267 0.0 4.8 0.00 0.00 0.00 64 1020.4
20260504193555 14 267 1.6 4.8 0.00 0.00 0.00 64 1020.4
20260504193111 14 266 0.0 6.4 0.00 0.00 0.00 64 1020.4
20260504192556 14 262 1.6 8.0 0.00 0.00 0.00 63 1020.3
20260504192059 14 255 4.8 8.0 0.00 0.00 0.00 63 1020.2
20260504191555 14 252 3.2 6.4 0.00 0.00 0.00 63 1020.1
20260504191054 14 219 3.2 4.8 0.00 0.00 0.00 63 1020.2
20260504190554 14 231 0.0 4.8 0.00 0.00 0.00 62 1020.2
20260504190106 15 232 1.6 14.5 0.00 0.00 0.00 62 1020.1
20260504185553 15 250 4.8 16.1 0.00 0.00 0.00 62 1020.0
20260504185053 15 255 8.0 12.9 0.00 0.00 0.00 62 1019.9
20260504184554 15 234 6.4 12.9 0.00 0.00 0.00 62 1019.9
20260504184057 15 210 6.4 11.3 0.00 0.00 0.00 61 1019.9
20260504183554 15 207 1.6 6.4 0.00 0.00 0.00 61 1020.0
20260504183100 15 239 3.2 8.0 0.00 0.00 0.00 61 1020.0
20260504182553 15 240 4.8 9.7 0.00 0.00 0.00 61 1019.9
20260504182053 15 216 4.8 9.7 0.00 0.00 0.00 61 1019.9
20260504181553 15 228 4.8 9.7 0.00 0.00 0.00 61 1019.9
20260504181155 15 250 4.8 11.3 0.00 0.00 0.00 61 1019.9
20260504180552 15 201 4.8 9.7 0.00 0.00 0.00 61 1019.7
20260504180130 15 265 6.4 9.7 0.00 0.00 0.00 60 1019.6
20260504175551 15 190 1.6 8.0 0.00 0.00 0.00 60 1019.6
20260504175051 15 246 6.4 8.0 0.00 0.00 0.00 60 1019.5
20260504174551 15 248 4.8 11.3 0.00 0.00 0.00 60 1019.6
20260504174050 15 242 6.4 11.3 0.00 0.00 0.00 59 1019.6
20260504173551 15 266 4.8 11.3 0.00 0.00 0.00 59 1019.6
20260504173050 15 264 4.8 12.9 0.00 0.00 0.00 58 1019.5
20260504172550 16 278 6.4 12.9 0.00 0.00 0.00 58 1019.5
20260504172051 16 269 3.2 11.3 0.00 0.00 0.00 57 1019.3
20260504171551 16 271 4.8 14.5 0.00 0.00 0.00 55 1019.4
20260504171049 16 261 8.0 14.5 0.00 0.00 0.00 53 1019.4
20260504170548 17 261 6.4 16.1 0.00 0.00 0.00 39 1019.4
20260504151042 18 350 19.3 27.4 0.00 0.00 0.00 31 1019.5
20260504150545 18 348 12.9 22.5 0.00 0.00 0.00 30 1019.4
20260504141039 18 13 19.3 38.6 0.00 0.00 0.00 27 1019.4
20260504140538 19 11 19.3 32.2 0.00 0.00 0.00 27 1019.5
20260504130527 19 329 14.5 24.1 0.00 0.00 0.00 33 1019.6
20260504110507 17 42 12.9 24.1 0.00 0.00 0.00 37 1021.0
20260504100557 17 12 19.3 29.0 0.00 0.00 0.00 39 1021.4
20260504100116 17 346 14.5 25.7 0.00 0.00 0.00 40 1021.4
20260504081526 15 12 9.7 22.5 0.00 0.00 0.00 44 1021.4
20260504081027 15 344 11.3 20.9 0.00 0.00 0.00 45 1021.4
20260504080525 15 335 11.3 20.9 0.00 0.00 0.00 44 1021.3
20260504060106 12 227 1.6 4.8 0.00 0.00 0.00 60 1021.0
20260504050543 10 294 0.0 3.2 0.00 0.05 0.00 71 1020.9
20260504045539 10 330 1.6 4.8 0.00 0.10 0.00 71 1020.9
20260504045038 9 251 0.0 4.8 0.00 0.10 0.00 72 1020.9
20260504044538 9 350 0.0 6.4 0.00 0.10 0.00 72 1020.8
20260504044038 9 355 1.6 6.4 0.00 0.10 0.00 72 1020.7
20260504043534 9 355 0.0 6.4 0.00 0.10 0.00 72 1020.6
20260504043041 9 76 1.6 6.4 0.00 0.10 0.00 73 1020.7
20260504042531 8 59 4.8 6.4 0.00 0.10 0.00 73 1020.7
20260504042032 8 41 4.8 6.4 0.00 0.10 0.00 74 1020.7
20260504041530 8 38 3.2 8.0 0.00 0.10 0.00 75 1020.7
20260504041028 8 15 6.4 8.0 0.00 0.10 0.00 73 1020.7
20260504040527 8 300 0.0 6.4 0.00 0.10 0.00 73 1020.6
20260504040026 8 311 3.2 6.4 0.00 0.10 0.00 73 1020.6
20260504035525 8 14 0.0 6.4 0.00 0.10 0.00 74 1020.6
20260504035027 8 360 1.6 6.4 0.00 0.10 0.00 75 1020.5
20260504034522 8 32 3.2 6.4 0.00 0.10 0.00 75 1020.5
20260504034022 8 338 1.6 6.4 0.00 0.10 0.00 74 1020.5
20260504033521 8 313 0.0 4.8 0.00 0.10 0.00 74 1020.5
20260504033021 8 9 0.0 4.8 0.00 0.10 0.00 74 1020.5
20260504032520 8 95 0.0 6.4 0.00 0.10 0.00 75 1020.5
20260504032021 7 90 3.2 6.4 0.00 0.10 0.00 75 1020.4
20260504031521 7 42 1.6 4.8 0.00 0.10 0.00 75 1020.4
20260504031020 7 355 1.6 4.8 0.00 0.10 0.00 75 1020.4
20260504030519 7 345 3.2 4.8 0.00 0.10 0.00 75 1020.3
20260504030019 7 319 0.0 4.8 0.00 0.15 0.00 75 1020.3
20260504025518 7 329 0.0 4.8 0.00 0.15 0.00 73 1020.1
20260504025017 8 333 0.0 8.0 0.00 0.15 0.00 72 1020.2
20260504024517 8 98 3.2 6.4 0.00 0.15 0.00 71 1020.2
20260504024016 8 84 1.6 4.8 0.00 0.15 0.00 72 1020.2
20260504023516 8 90 0.0 4.8 0.00 0.15 0.00 71 1020.1
20260504023016 8 78 3.2 6.4 0.00 0.15 0.00 71 1020.1
20260504022517 8 91 1.6 6.4 0.00 0.15 0.00 71 1020.1
20260504022016 8 113 3.2 6.4 0.00 0.15 0.00 72 1020.2
20260504021518 8 119 0.0 9.7 0.00 0.15 0.00 71 1020.2
20260504021014 8 118 4.8 11.3 0.00 0.15 0.00 72 1020.3
20260504020514 8 130 3.2 11.3 0.00 0.15 0.00 71 1020.3
20260504020014 8 52 4.8 12.9 0.00 0.15 0.00 70 1020.5
20260504015514 8 134 4.8 12.9 0.00 0.15 0.00 70 1020.4
20260504015014 8 30 4.8 12.9 0.00 0.15 0.00 71 1020.4
20260504014513 8 134 4.8 8.0 0.00 0.15 0.00 71 1020.3
20260504014012 8 54 4.8 8.0 0.00 0.15 0.00 70 1020.3
20260504013513 8 105 3.2 14.5 0.00 0.15 0.00 70 1020.4
20260504013016 8 92 6.4 14.5 0.00 0.15 0.00 69 1020.3
20260504012510 8 28 0.0 12.9 0.00 0.15 0.00 69 1020.4
20260504012009 8 347 3.2 8.0 0.00 0.15 0.00 68 1020.3
20260504011509 8 107 3.2 6.4 0.00 0.15 0.00 68 1020.3
20260504011010 9 98 0.0 4.8 0.00 0.15 0.00 67 1020.4
20260504010508 8 119 1.6 4.8 0.00 0.15 0.00 67 1020.3
20260504010009 8 97 3.2 6.4 0.00 0.15 0.00 68 1020.3
20260504005509 9 15 0.0 6.4 0.00 0.15 0.00 67 1020.3
20260504005008 8 119 0.0 4.8 0.00 0.15 0.00 68 1020.1
20260504004516 9 124 1.6 4.8 0.00 0.15 0.00 67 1020.2
20260504004007 9 119 0.0 4.8 0.00 0.15 0.00 66 1020.2
20260504003506 9 101 3.2 4.8 0.00 0.15 0.00 67 1020.2
20260504003006 9 296 1.6 6.4 0.00 0.15 0.00 66 1020.1
20260504002506 9 304 1.6 8.0 0.00 0.15 0.00 66 1020.1
20260504002006 9 71 1.6 12.9 0.00 0.15 0.00 66 1020.1
20260504001506 9 350 3.2 11.3 0.00 0.15 0.00 65 1020.0
20260504001007 9 212 0.0 8.0 0.00 0.15 0.00 65 1020.0
20260504000505 9 211 3.2 8.0 0.00 0.15 0.00 65 1020.0
20260504000005 9 89 1.6 4.8 0.00 0.15 0.00 66 1020.2
20260503235504 9 336 0.0 3.2 0.00 0.15 0.00 65 1020.2
20260503235004 9 337 0.0 12.9 0.00 0.15 0.00 65 1020.2
20260503234504 9 344 1.6 17.7 0.00 0.15 0.00 65 1020.2
20260503234005 9 254 9.7 17.7 0.00 0.15 0.00 66 1020.1
20260503233502 9 246 8.0 14.5 0.00 0.15 0.00 66 1020.2
20260503233001 9 261 3.2 6.4 0.00 0.15 0.00 67 1020.3
20260503232502 9 142 3.2 6.4 0.00 0.15 0.00 67 1020.2
20260503232001 9 49 1.6 4.8 0.00 0.15 0.00 68 1020.3
20260503231607 8 43 1.6 4.8 0.00 0.15 0.00 68 1020.3
20260503231100 8 42 1.6 4.8 0.00 0.15 0.00 69 1020.2
20260503230559 9 48 0.0 0.0 0.00 0.15 0.00 66 1020.2
20260503230116 9 47 0.0 1.6 0.00 0.15 0.00 66 1020.2
20260503225557 10 45 0.0 4.8 0.00 0.23 0.00 65 1020.2
20260503225056 10 27 1.6 4.8 0.00 0.23 0.00 64 1020.1
20260503224603 10 84 1.6 3.2 0.00 0.23 0.00 63 1020.2
20260503224055 10 84 0.0 4.8 0.00 0.23 0.00 63 1020.3
20260503223555 10 137 1.6 9.7 0.00 0.23 0.00 63 1020.3
20260503223054 10 130 3.2 9.7 0.00 0.23 0.00 63 1020.4
20260503222555 10 146 6.4 9.7 0.00 0.23 0.00 64 1020.3
20260503222053 10 326 1.6 6.4 0.00 0.23 0.00 63 1020.4
20260503221553 10 161 3.2 8.0 0.00 0.23 0.00 63 1020.3
20260503221054 10 161 0.0 12.9 0.00 0.23 0.00 64 1020.5